Regional Weather Roundup
Issued by NWS Newport/Morehead, NC

Current Version | Previous Version | Text Only | Print | Product List | Glossary Off
Versions: 1 2 3 4 5 6 7 8 9 10 11 12 13 14 15 16 17 18 19 20 21 22 23 24 25 26 27 28 29 30 31 32 33 34 35 36 37 38 39 40 41 42 43 44 45 46 47 48 49 50
000 ASUS42 KMHX 021713 RWRMHX WEATHER ROUNDUP FOR EASTERN NORTH CAROLINA NATIONAL WEATHER SERVICE NEWPORT/MOREHEAD CITY NC 100 PM EDT THU JUL 02 2015 NOTE: "FAIR" INDICATES FEW OR NO CLOUDS BELOW 12,000 FEET WITH NO SIGNIFICANT WEATHER AND/OR OBSTRUCTIONS TO VISIBILITY NCZ015>017-031-032-045>047-102-103-021800- NORTH COAST CITY SKY/WX TMP DP RH WIND PRES REMARKS EDENTON NOT AVBL ELIZABETH CITY MOSUNNY 85 73 67 S12 29.89F KITTY HAWK NOT AVBL MANTEO NOT AVBL $$ NCZ045>047-081-094-103-104-021800- CENTRAL COAST CITY SKY/WX TMP DP RH WIND PRES REMARKS FRISCO MOSUNNY 82 75 79 SW14G20 29.94F SWANQUARTER N/A 88 N/A N/A S12G18 29.88S $$ NCZ095-097-098-100-101-021800- SOUTHERN COAST CITY SKY/WX TMP DP RH WIND PRES REMARKS BEAUFORT MOSUNNY 84 73 69 SW17 29.96S CEDAR ISLAND N/A 90 N/A N/A S9G17 29.97S JACKSONVILLE MOSUNNY 87 68 52 W9 29.94S PINEY ISLAND MOSUNNY N/A N/A N/A S13G20 29.94S WILMINGTON MOSUNNY 86 69 56 W14 29.96F $$ NCZ011>013-027>030-043-044-078>080-089-090>093-098-021800- COASTAL PLAIN CITY SKY/WX TMP DP RH WIND PRES REMARKS AHOSKIE PTSUNNY 83 70 64 S3 29.89F CLINTON NOT AVBL ELIZABETHTOWN NOT AVBL GOLDSBORO PTSUNNY 84 68 57 SW10G20 29.91S GREENVILLE CLOUDY 86 70 58 SW10 29.93S HAVELOCK MOSUNNY 90 67 46 S10 29.94F KENANSVILLE NOT AVBL KINSTON CLOUDY 88 68 51 SW9 29.93F NEW BERN PTSUNNY 88 69 53 W12 29.94F RICHLANDS MOSUNNY 90 68 48 W10G17 29.95S ROCKY MOUNT MOSUNNY 85 69 58 SW10 29.91S WASHINGTON NOT AVBL WHITEVILLE SUNNY 86 70 58 SW9 29.96 $$ AMZ130-135-150-152-154-156-158-170-250-252-270-ANZ085-086-088-633-658-670-021800- MARINE OBSERVATIONS STATION/POSITION TIME TEMP WIND PRES WAVE SWELL AIR SEA DIR/SP/G HT/PER HT/PER (UTC) (F) (DEG/KT/KT) (MB) (FT/S) (FT/S) CHESAPEAKE LIGHT 1700 79 200/ 16/ 17 1011.8 64 E VA BEACH 1650 79 77 200/ 14/ 17 1011.7 5/ 8 3/ 8 DUCK 1600 62 1011.7 2 E DUCK 1611 72 N/A 2/ 8 OREGON INLET 1600 81 1013.0 13E OREGON INLT 1700 75 N/A 3/ 7 HATTERAS CG 1600 79 1013.8 DIAMOND BUOY 1650 82 83 230/ 17/ 19 1014.0 4/ 8 2/ 8 CAPE LOOKOUT 1700 84 230/ 13/ 17 1014.2 BEAUFORT LAB 1600 81 1013.8 30 SE NEW RVR IN 1608 81 80 250/ 12/ 16 1015.5 27 SE WRIGHTSVLE 1600 81 260/ 14/ 17 N/A 5 SE WRIGHTSVLE 1608 82 80 230/ 10/ 12 1014.9 225 S CAPE HAT 1650 77 80 230/ 10/ 14 1020.5 6/ 6 5/ 6 41 SE CHARLESTON 1650 81 81 220/ 14/ 16 1016.6 4/ 6 2/ 7 $$

USA.gov is the U.S. government's official web portal to all federal, state and local government web resources and services.